Location: Dover
(39.1580°N, 75.5250°W)
Time: 23:08:12
(UTC-04:00)

ISS - All Passes

Search period start: 29 June 2016 00:00
Search period end: 09 July 2016 00:00
Orbit: 402 x 403 km, 51.6° (Epoch: 29 June)

Date Brightness Start Highest point End Pass type
(mag) Time Alt. Az. Time Alt. Az. Time Alt. Az.
29 Jun - 07:43:02 10° S 07:45:08 16° SE 07:47:14 10° E daylight
29 Jun - 09:18:07 10° WSW 09:21:17 49° NW 09:24:28 10° NE daylight
29 Jun - 10:56:45 10° NW 10:58:21 13° NNW 10:59:58 10° NNE daylight
29 Jun - 14:10:50 10° NNW 14:13:25 21° NNE 14:16:00 10° ENE daylight
29 Jun - 15:46:52 10° WNW 15:50:03 53° SW 15:53:15 10° SE daylight
30 Jun - 08:25:15 10° SW 08:28:30 84° SE 08:31:47 10° NE daylight
30 Jun - 10:03:03 10° WNW 10:05:19 17° NNW 10:07:34 10° NNE daylight
30 Jun - 13:18:24 10° NNW 13:20:25 15° NNE 13:22:25 10° ENE daylight
30 Jun - 14:54:03 10° NW 14:57:20 73° NE 15:00:35 10° ESE daylight
30 Jun - 16:32:34 10° WSW 16:33:19 11° SW 16:34:05 10° SW daylight
01 Jul - 07:32:44 10° SSW 07:35:48 39° SE 07:38:53 10° ENE daylight
01 Jul - 09:09:34 10° W 09:12:20 25° NNW 09:15:06 10° NNE daylight
01 Jul - 10:49:20 10° NNW 10:49:41 10° N 10:50:02 10° N daylight
01 Jul - 12:26:02 10° N 12:27:20 12° NNE 12:28:37 10° NE daylight
01 Jul - 14:01:24 10° NW 14:04:30 38° NNE 14:07:35 10° ESE daylight
01 Jul - 15:38:13 10° W 15:40:46 21° SW 15:43:19 10° S daylight
02 Jul - 06:40:45 10° S 06:43:11 20° SE 06:45:37 10° E daylight
02 Jul - 08:16:19 10° WSW 08:19:25 40° NNW 08:22:32 10° NE daylight
02 Jul - 09:55:11 10° NW 09:56:34 12° NNW 09:57:56 10° N daylight
02 Jul - 13:08:51 10° NNW 13:11:35 24° NNE 13:14:18 10° E daylight
02 Jul - 14:45:01 10° WNW 14:48:08 42° SW 14:51:14 10° SSE daylight
03 Jul - 07:23:20 10° SW 07:26:35 79° NW 07:29:51 10° NE daylight
03 Jul - 09:01:24 10° WNW 09:03:28 16° NNW 09:05:33 10° NNE daylight
03 Jul - 12:16:22 10° NNW 12:18:34 17° NNE 12:20:46 10° ENE daylight
03 Jul - 13:52:08 10° NW 13:55:24 90° NE 13:58:40 10° SE daylight
04 Jul - 06:30:41 10° SSW 06:33:51 49° SE 06:37:01 10° ENE daylight
04 Jul - 08:07:49 10° W 08:10:27 22° NNW 08:13:05 10° NNE daylight
04 Jul - 11:23:58 10° NNW 11:25:29 13° NNE 11:27:01 10° NE daylight
04 Jul - 12:59:25 10° NW 13:02:35 45° NE 13:05:44 10° ESE daylight
04 Jul - 14:36:31 10° W 14:38:46 17° SW 14:41:00 10° S daylight
05 Jul - 05:38:29 10° S 05:41:10 24° SE 05:43:52 10° ENE daylight
05 Jul - 07:14:28 10° W 07:17:30 34° NNW 07:20:32 10° NE daylight
05 Jul - 08:53:34 10° NNW 08:54:42 11° NNW 08:55:50 10° N daylight
05 Jul - 10:31:44 10° N 10:32:21 10° N 10:32:59 10° NNE daylight
05 Jul - 12:06:48 10° NNW 12:09:40 27° NNE 12:12:30 10° E daylight
05 Jul - 13:43:08 10° WNW 13:46:08 34° SW 13:49:08 10° SSE daylight
06 Jul - 04:47:12 10° SSE 04:48:35 12° SE 04:49:56 10° ESE visible
06 Jul - 06:21:23 10° WSW 06:24:37 64° NW 06:27:52 10° NE daylight
06 Jul - 07:59:41 10° NW 08:01:35 14° NNW 08:03:28 10° NNE daylight
06 Jul - 11:14:18 10° NNW 11:16:40 18° NNE 11:19:02 10° ENE daylight
06 Jul - 12:50:09 10° NW 12:53:25 74° SW 12:56:40 10° SE daylight
07 Jul - 05:28:37 10° SW 05:31:49 62° SE 05:35:03 10° ENE daylight
07 Jul - 07:06:02 10° WNW 07:08:31 20° NNW 07:11:00 10° NNE daylight
07 Jul - 10:21:51 10° NNW 10:23:35 14° NNE 10:25:19 10° NE daylight
07 Jul - 11:57:23 10° NW 12:00:36 55° NE 12:03:48 10° ESE daylight
07 Jul - 13:34:52 10° W 13:36:43 14° SW 13:38:32 10° SSW daylight
08 Jul - 04:36:14 10° SSW 04:39:07 29° SE 04:41:59 10° ENE visible
08 Jul - 06:12:35 10° W 06:15:31 30° NNW 06:18:27 10° NE daylight
08 Jul - 07:51:55 10° NNW 07:52:47 11° N 07:53:39 10° N daylight
08 Jul - 09:29:30 10° N 09:30:26 11° N 09:31:22 10° NNE daylight
08 Jul - 11:04:43 10° NW 11:07:41 31° NNE 11:10:38 10° E daylight
08 Jul - 12:41:13 10° WNW 12:44:04 28° SW 12:46:55 10° SSE daylight
